Startseite
Über Mich
AHP4
Galerie
Sehschlangen
Tourenbuch
Bookmarks
Elektronik
Bewertung
Geschichten
[Tagesmessung] [Jahreswerte] [Information]

Messwerte vom 14.01.2022

Die letzten Messwerte von 23:58:48 Uhr:
KategorieMesswert
Temperatur [°C]2
Luftdruck [mBar]1016
Sonneneinstrahlung0
Wind [km/h]0 aus West
Niederschlag [l/m²]0
rel.Luftfeucht.96.6%
CO2 [ppm]508

Diagramme
Messwerte vom 14.01.2022
Tagesaggregation
KategorieMinimumMaximumSchnittSumme
Temperatur [°C]264.0604
Luftdruck [mBar]101310171015.6667
Sonneneinstrahlung20649.8708
Wind [km/h]21
rF [%]96.296.696.6
Niederschlag [l/m²]0
CO2 [ppm]399517427.1
Einordnung alsKalter Tag

Messungen an benachbarten Tagen: Zur Jahresaggregation 2022
Tabelle aller Messwerte
UhrzeitTemperatur [°C]Luftdruck [mBar]SonneWind [km/h]RichtungRegen [l/m²]rF [%]CO2 [ppm]
00:01:50 3 1017 0 6 W 0 96.6 404
00:04:44 3 1017 0 11 O 0 96.6 404
00:07:47 3 1017 0 10 W 0 96.6 404
00:10:46 3 1017 0 6 W 0 96.6 406
00:13:45 3 1017 0 10 S 0 96.6 404
00:16:47 3 1017 0 10 O 0 96.6 401
00:19:48 3 1017 0 7 NW 0 96.6 408
00:22:47 3 1017 0 8 SW 0 96.6 404
00:25:48 3 1017 0 7 W 0 96.6 407
00:28:47 3 1017 0 12 W 0 96.6 407
00:31:47 3 1017 0 7 NW 0 96.6 407
00:34:49 3 1017 0 11 O 0 96.6 407
00:37:48 3 1017 0 6 W 0 96.6 407
00:40:46 3 1017 0 3 W 0 96.6 407
00:43:47 3 1017 0 7 NW 0 96.6 405
00:46:46 3 1017 0 3 0 96.6 407
00:49:48 3 1017 0 12 W 0 96.6 401
00:52:45 3 1017 0 6 0 96.2 404
00:55:48 3 1017 0 9 SW 0 96.6 404
00:58:46 3 1017 0 5 W 0 96.6 407
01:01:45 3 1017 0 8 W 0 96.6 404
01:04:46 3 1017 0 3 S 0 96.6 404
01:07:47 3 1017 0 7 NW 0 96.6 404
01:10:45 3 1017 0 4 N 0 96.6 407
01:13:47 3 1017 0 4 S 0 96.6 407
01:16:47 3 1017 0 4 SW 0 96.6 404
01:19:44 3 1017 0 2 SW 0 96.6 404
01:22:48 3 1017 0 5 SW 0 96.6 405
01:25:49 3 1017 0 5 SW 0 96.6 407
01:28:46 3 1017 0 8 SW 0 96.6 407
01:31:47 3 1017 0 7 S 0 96.6 407
01:34:49 3 1017 0 10 NW 0 96.6 407
01:37:47 3 1017 0 6 SW 0 96.6 404
01:40:47 3 1017 0 10 SO 0 96.6 404
01:43:47 3 1017 0 6 N 0 96.6 405
01:46:50 3 1017 0 11 SW 0 96.6 404
01:49:47 3 1017 0 2 NW 0 96.6 404
01:52:47 3 1017 0 14 N 0 96.6 407
01:55:46 3 1017 0 8 SW 0 96.6 407
01:58:46 3 1017 0 10 0 96.6 407
02:01:47 3 1017 0 10 SW 0 96.6 403
02:04:48 3 1017 0 8 NW 0 96.6 407
02:07:50 3 1017 0 4 NW 0 96.6 407
02:10:47 3 1017 0 2 SW 0 96.6 404
02:13:48 3 1017 0 7 W 0 96.6 407
02:16:45 3 1017 0 11 SO 0 96.6 407
02:19:49 3 1017 0 6 W 0 96.6 407
02:22:46 3 1017 0 5 W 0 96.6 405
02:25:48 3 1017 0 12 NW 0 96.6 401
02:28:46 3 1017 0 14 W 0 96.6 407
02:31:49 3 1017 0 9 NW 0 96.6 407
02:34:47 3 1017 0 5 SO 0 96.6 404
02:37:47 3 1017 0 10 SW 0 96.6 407
02:40:47 3 1017 0 10 NW 0 96.6 404
02:43:46 3 1017 0 7 SW 0 96.6 407
02:46:45 3 1017 0 2 S 0 96.6 405
02:49:46 3 1017 0 10 N 0 96.6 405
02:52:45 3 1017 0 6 W 0 96.6 407
02:55:48 3 1017 0 7 W 0 96.6 405
02:58:47 3 1017 0 4 SW 0 96.6 404
03:01:48 3 1017 0 6 SO 0 96.6 407
03:04:45 3 1017 0 5 W 0 96.6 404
03:07:46 3 1017 0 7 W 0 96.6 407
03:10:46 3 1017 0 5 S 0 96.6 407
03:13:45 3 1017 0 6 N 0 96.6 404
03:16:50 3 1017 0 6 W 0 96.6 407
03:19:46 3 1017 0 11 W 0 96.6 407
03:22:47 3 1016 0 3 SO 0 96.6 407
03:25:45 3 1017 0 3 W 0 96.6 404
03:28:45 3 1017 0 11 N 0 96.6 403
03:31:48 3 1017 0 4 SW 0 96.6 407
03:34:46 3 1017 0 8 SW 0 96.6 407
03:37:48 3 1017 0 3 NW 0 96.6 404
03:40:47 3 1017 0 6 SW 0 96.6 407
03:43:46 3 1017 0 6 SW 0 96.6 404
03:46:46 3 1017 0 6 W 0 96.6 404
03:49:44 3 1017 0 5 W 0 96.6 407
03:52:48 3 1017 0 7 SW 0 96.6 401
03:55:48 3 1017 0 13 W 0 96.6 404
03:58:45 3 1017 0 5 W 0 96.6 405
04:01:46 3 1017 0 6 SW 0 96.6 407
04:04:47 3 1016 0 7 S 0 96.6 405
04:07:45 3 1017 0 5 W 0 96.6 406
04:10:50 3 1017 0 5 W 0 96.6 407
04:13:47 3 1017 0 7 W 0 96.6 407
04:16:48 3 1017 0 11 SW 0 96.6 407
04:19:46 3 1017 0 2 SW 0 96.6 404
04:22:47 3 1016 0 3 SW 0 96.6 399
04:25:48 3 1017 0 8 SW 0 96.6 403
04:28:45 3 1017 0 6 S 0 96.6 404
04:31:44 3 1017 0 5 W 0 96.6 404
04:34:45 3 1017 0 1 W 0 96.6 407
04:37:47 3 1017 0 7 W 0 96.6 408
04:40:48 3 1016 0 3 S 0 96.6 407
04:43:45 3 1016 0 7 W 0 96.6 407
04:46:45 3 1016 0 5 S 0 96.6 407
04:49:47 3 1016 0 2 SO 0 96.6 407
04:52:48 3 1016 0 6 SW 0 96.6 404
04:55:47 3 1016 0 3 SW 0 96.6 407
04:58:47 3 1016 0 5 N 0 96.6 401
05:01:49 3 1016 0 5 SO 0 96.6 404
05:04:49 3 1016 0 9 W 0 96.6 404
05:07:46 3 1016 0 3 N 0 96.6 405
05:10:46 3 1016 0 4 SO 0 96.6 404
05:13:48 3 1016 0 8 W 0 96.6 405
05:16:46 3 1016 0 7 NW 0 96.6 407
05:19:49 3 1016 0 9 SW 0 96.6 407
05:22:47 3 1016 0 7 W 0 96.6 407
05:25:47 3 1015 0 3 N 0 96.6 407
05:28:45 3 1016 0 9 S 0 96.6 404
05:31:49 3 1016 0 1 SW 0 96.6 407
05:34:47 3 1016 0 2 SW 0 96.6 408
05:37:46 3 1016 0 18 O 0 96.6 407
05:40:45 3 1016 0 2 O 0 96.6 406
05:43:46 3 1015 0 2 W 0 96.6 407
05:46:47 3 1016 0 2 SO 0 96.6 407
05:49:48 3 1015 0 6 W 0 96.6 406
05:52:47 3 1016 0 4 W 0 96.6 407
05:55:44 3 1015 0 5 W 0 96.6 404
05:58:46 3 1016 0 4 SW 0 96.6 405
06:01:47 3 1016 0 8 SW 0 96.6 404
06:04:48 3 1016 0 8 NW 0 96.6 406
06:07:48 3 1016 0 3 W 0 96.6 404
06:10:47 3 1016 0 4 W 0 96.6 405
06:13:46 3 1015 0 5 S 0 96.6 404
06:16:49 3 1015 0 10 NW 0 96.6 407
06:19:46 3 1015 0 3 W 0 96.6 404
06:22:47 3 1015 0 6 W 0 96.6 406
06:25:48 3 1015 0 10 SW 0 96.6 407
06:28:47 3 1014 0 7 NW 0 96.6 407
06:31:48 3 1015 0 9 W 0 96.6 407
06:34:46 3 1015 0 5 SW 0 96.6 407
06:37:47 3 1014 0 2 NO 0 96.6 407
06:40:49 3 1015 0 5 NW 0 96.6 404
06:43:49 3 1015 0 10 W 0 96.6 407
06:46:45 3 1014 0 7 O 0 96.6 404
06:49:47 3 1014 0 1 W 0 96.6 405
06:52:46 3 1014 0 6 SW 0 96.6 402
06:55:46 3 1015 0 4 W 0 96.6 404
06:58:48 3 1015 0 2 W 0 96.6 407
07:01:48 3 1014 0 7 SW 0 96.6 407
07:04:47 3 1014 0 5 W 0 96.6 404
07:07:45 3 1014 0 4 N 0 96.6 407
07:10:46 3 1015 0 5 W 0 96.6 403
07:13:46 3 1014 0 8 NW 0 96.6 407
07:16:44 3 1014 0 5 N 0 96.6 407
07:19:48 3 1014 0 8 SW 0 96.6 404
07:22:47 3 1015 0 10 S 0 96.6 404
07:25:49 3 1014 0 3 SW 0 96.6 401
07:28:46 3 1015 0 3 W 0 96.6 403
07:31:46 3 1015 0 5 S 0 96.6 407
07:34:48 3 1015 0 9 W 0 96.6 407
07:37:47 3 1015 0 4 SW 0 96.6 407
07:40:49 3 1015 0 7 SO 0 96.6 407
07:43:46 3 1015 0 7 SW 0 96.6 406
07:46:47 3 1014 0 2 S 0 96.6 406
07:49:46 3 1015 0 12 W 0 96.6 407
07:52:47 3 1015 0 16 W 0 96.6 404
07:55:48 3 1014 3 21 SW 0 96.6 408
07:58:46 3 1015 5 11 SW 0 96.6 404
08:01:48 3 1016 7 6 SW 0 96.6 408
08:04:47 3 1014 9 3 SW 0 96.6 407
08:07:49 3 1015 12 6 W 0 96.6 407
08:10:48 3 1014 16 4 W 0 96.6 404
08:13:48 3 1015 21 4 W 0 96.6 407
08:16:46 3 1015 24 4 O 0 96.6 407
08:19:47 3 1016 26 7 SW 0 96.6 407
08:22:47 3 1016 29 6 W 0 96.6 407
08:25:46 3 1015 36 4 S 0 96.6 404
08:28:46 3 1015 38 2 S 0 96.6 407
08:31:47 3 1016 43 7 SW 0 96.6 407
08:34:47 3 1016 51 9 W 0 96.6 404
08:37:48 3 1016 52 4 W 0 96.6 404
08:40:47 3 1016 57 6 S 0 96.6 404
08:43:50 4 1015 69 7 NW 0 96.6 407
08:46:48 4 1016 70 7 W 0 96.6 419
08:49:48 4 1016 82 11 SW 0 96.6 413
08:52:47 4 1016 73 5 W 0 96.6 413
08:55:47 4 1016 77 8 S 0 96.6 405
08:58:45 4 1016 79 7 W 0 96.6 413
09:01:49 4 1016 89 5 SW 0 96.2 413
09:04:49 4 1015 85 6 NW 0 96.6 413
09:07:47 4 1016 90 3 S 0 96.6 416
09:10:50 4 1016 89 9 NW 0 96.6 425
09:13:47 4 1017 90 1 W 0 96.6 428
09:16:47 4 1017 89 6 W 0 96.6 427
09:19:48 4 1017 90 2 SW 0 96.6 422
09:22:46 4 1016 94 6 SW 0 96.6 427
09:25:46 4 1016 106 4 S 0 96.6 430
09:28:48 4 1016 106 5 W 0 96.6 430
09:31:48 4 1016 110 2 SW 0 96.6 430
09:34:47 4 1016 119 4 SW 0 96.6 427
09:37:48 4 1017 122 4 W 0 96.6 430
09:40:46 4 1017 130 6 W 0 96.6 427
09:43:45 4 1016 134 8 S 0 96.6 433
09:46:48 4 1016 129 6 S 0 96.6 434
09:49:49 4 1016 135 5 NW 0 96.6 434
09:52:47 4 1017 140 10 W 0 96.6 427
09:55:48 4 1017 144 7 SW 0 96.6 424
09:58:47 4 1016 150 6 SW 0 96.6 421
10:01:46 4 1017 152 3 W 0 96.6 424
10:04:46 4 1016 154 2 N 0 96.6 424
10:07:47 4 1016 163 3 S 0 96.6 422
10:10:47 4 1017 163 3 SO 0 96.6 419
10:13:47 4 1016 171 7 SW 0 96.6 407
10:16:47 4 1017 174 7 W 0 96.6 404
10:19:48 4 1015 165 9 SW 0 96.6 410
10:22:48 4 1016 188 16 SO 0 96.6 413
10:25:48 4 1016 187 2 NW 0 96.6 415
10:28:45 4 1016 187 3 O 0 96.6 418
10:31:48 5 1016 181 8 SW 0 96.6 419
10:34:48 5 1016 182 14 NW 0 96.6 419
10:37:48 5 1016 172 5 SW 0 96.6 424
10:40:46 5 1017 187 5 S 0 96.6 419
10:43:47 5 1016 181 5 SO 0 96.6 430
10:46:47 5 1016 172 5 NW 0 96.6 433
10:49:45 4 1016 184 9 O 0 96.6 431
10:52:48 5 1016 186 7 NW 0 96.6 428
10:55:48 5 1016 183 8 SW 0 96.6 430
10:58:47 5 1016 180 5 SW 0 96.6 421
11:01:48 5 1016 185 9 W 0 96.6 424
11:04:47 5 1016 191 7 SO 0 96.6 421
11:07:46 5 1016 189 7 W 0 96.6 431
11:10:48 5 1016 184 9 W 0 96.6 436
11:13:46 5 1016 182 6 S 0 96.6 452
11:16:49 5 1016 193 8 SO 0 96.6 448
11:19:47 5 1016 185 6 SW 0 96.6 451
11:22:45 5 1016 185 4 S 0 96.6 451
11:25:48 5 1017 187 10 SW 0 96.6 448
11:28:45 5 1016 190 16 N 0 96.6 451
11:31:49 5 1016 190 5 S 0 96.6 447
11:34:46 5 1016 189 4 SW 0 96.6 445
11:37:46 5 1016 194 7 W 0 96.6 441
11:40:47 5 1015 185 13 SW 0 96.6 434
11:43:49 5 1016 189 6 SW 0 96.6 427
11:46:47 5 1016 191 4 NW 0 96.6 423
11:49:47 5 1016 185 7 S 0 96.6 424
11:52:46 5 1016 188 5 W 0 96.6 424
11:55:48 5 1016 187 7 SW 0 96.6 431
11:58:46 5 1015 193 6 W 0 96.6 430
12:01:50 5 1016 192 9 S 0 96.6 422
12:04:49 5 1015 189 3 SW 0 96.6 414
12:07:48 5 1016 189 4 SW 0 96.6 404
12:10:48 5 1015 184 6 NW 0 96.6 404
12:13:46 5 1015 194 5 W 0 96.6 404
12:16:48 5 1015 196 10 S 0 96.6 405
12:19:48 5 1015 206 11 SW 0 96.6 405
12:22:48 5 1015 195 6 SW 0 96.6 406
12:25:47 5 1016 182 4 W 0 96.6 407
12:28:48 5 1016 187 8 W 0 96.6 407
12:31:47 5 1015 197 11 W 0 96.6 404
12:34:49 5 1016 189 11 SW 0 96.6 404
12:37:48 5 1016 181 7 W 0 96.6 404
12:40:47 5 1016 193 6 W 0 96.6 412
12:43:47 5 1016 183 11 W 0 96.6 427
12:46:46 5 1014 188 6 W 0 96.6 424
12:49:48 5 1015 192 4 W 0 96.6 418
12:52:46 5 1015 187 7 SW 0 96.6 413
12:55:46 5 1016 187 5 W 0 96.6 413
12:58:48 5 1015 189 5 W 0 96.6 420
13:01:48 5 1015 192 9 N 0 96.6 418
13:04:48 5 1015 187 4 NW 0 96.6 418
13:07:48 5 1015 181 12 W 0 96.6 419
13:10:47 6 1016 183 9 N 0 96.6 421
13:13:46 5 1015 191 5 SW 0 96.6 424
13:16:47 5 1015 182 9 W 0 96.6 415
13:19:48 5 1015 169 8 S 0 96.6 407
13:22:47 5 1016 177 8 SW 0 96.6 419
13:25:52 5 1015 183 10 SW 0 96.6 436
13:28:47 5 1015 177 4 W 0 96.6 445
13:31:50 5 1015 178 9 SW 0 96.6 439
13:34:49 5 1015 180 3 SO 0 96.6 430
13:37:47 5 1016 183 11 S 0 96.6 430
13:40:46 5 1015 182 7 N 0 96.6 434
13:43:46 5 1016 176 9 W 0 96.6 437
13:46:49 5 1016 179 7 W 0 96.6 434
13:49:47 5 1015 173 3 SW 0 96.6 422
13:52:46 5 1015 180 6 S 0 96.6 416
13:55:45 5 1015 171 4 W 0 96.6 413
13:58:48 5 1015 155 7 NW 0 96.6 424
14:01:49 5 1015 183 5 NW 0 96.6 422
14:04:47 5 1015 167 7 NW 0 96.6 433
14:07:48 5 1014 153 5 0 96.6 434
14:10:47 5 1015 150 8 SW 0 96.6 439
14:13:45 5 1015 174 5 W 0 96.6 442
14:16:50 5 1015 164 4 NW 0 96.6 449
14:19:49 5 1014 162 7 NW 0 96.6 457
14:22:48 5 1014 157 8 SW 0 96.6 448
14:25:48 5 1014 172 5 SW 0 96.6 445
14:28:45 5 1014 171 7 W 0 96.6 439
14:31:46 6 1015 169 5 W 0 96.6 430
14:34:46 6 1015 163 8 N 0 96.6 421
14:37:46 6 1015 175 15 W 0 96.6 415
14:40:48 6 1015 137 20 W 0 96.6 422
14:43:48 6 1014 147 12 SO 0 96.6 422
14:46:47 5 1015 156 9 NW 0 96.6 421
14:49:45 6 1014 140 7 N 0 96.6 427
14:52:45 6 1014 156 6 SW 0 96.6 427
14:55:47 5 1014 135 17 NW 0 96.6 430
14:58:48 5 1015 135 9 NW 0 96.6 431
15:01:48 5 1015 152 2 NW 0 96.6 440
15:04:47 5 1014 124 4 NW 0 96.6 439
15:07:49 5 1014 144 15 NW 0 96.6 433
15:10:49 5 1014 123 7 N 0 96.6 439
15:13:49 5 1014 126 6 SW 0 96.6 436
15:16:49 5 1014 150 10 S 0 96.6 438
15:19:45 5 1015 124 7 W 0 96.6 422
15:22:47 5 1015 117 5 SW 0 96.6 421
15:25:47 5 1015 129 7 W 0 96.6 419
15:28:49 5 1015 123 5 SW 0 96.6 424
15:31:47 5 1014 131 11 SW 0 96.6 436
15:34:48 5 1014 121 6 SW 0 96.6 442
15:37:47 5 1014 111 9 SW 0 96.6 439
15:40:48 5 1014 96 10 W 0 96.6 442
15:43:47 5 1014 98 10 SW 0 96.6 465
15:46:49 5 1015 104 14 SW 0 96.6 460
15:49:48 5 1015 99 12 NW 0 96.6 462
15:52:47 5 1015 94 10 N 0 96.6 454
15:55:45 5 1014 78 8 W 0 96.6 451
15:58:45 5 1014 79 5 S 0 96.6 451
16:01:47 5 1014 84 4 W 0 96.6 451
16:04:46 5 1014 81 8 W 0 96.6 439
16:07:48 5 1014 68 11 SW 0 96.6 434
16:11:01 5 1013 63 8 SW 0 96.6 433
16:13:46 5 1014 58 4 N 0 96.6 433
16:16:46 5 1014 55 3 W 0 96.6 428
16:19:46 5 1014 57 8 W 0 96.6 430
16:22:46 5 1014 39 7 W 0 96.6 433
16:25:47 5 1014 30 8 W 0 96.6 442
16:28:46 5 1014 27 6 W 0 96.6 442
16:31:50 5 1014 31 20 SW 0 96.6 442
16:34:48 5 1014 24 6 W 0 96.6 442
16:37:48 5 1014 17 8 S 0 96.6 445
16:40:45 5 1014 14 4 W 0 96.6 439
16:43:45 5 1014 10 2 N 0 96.6 439
16:46:47 5 1014 8 5 NW 0 96.6 439
16:49:47 5 1014 6 9 SW 0 96.6 439
16:52:46 5 1014 4 10 NW 0 96.6 436
16:55:46 5 1014 0 4 SW 0 96.6 430
16:58:48 5 1014 0 8 SW 0 96.6 424
17:01:46 5 1014 0 3 NW 0 96.6 421
17:04:48 5 1014 0 4 NW 0 96.6 418
17:07:46 5 1014 0 4 SW 0 96.6 418
17:10:44 5 1015 0 7 S 0 96.6 424
17:13:45 5 1014 0 9 W 0 96.6 430
17:16:44 5 1015 0 7 S 0 96.6 436
17:19:47 5 1014 0 5 SW 0 96.6 441
17:22:46 5 1015 0 5 NW 0 96.6 433
17:25:47 5 1014 0 9 SO 0 96.6 443
17:28:47 5 1015 0 5 W 0 96.6 434
17:31:47 5 1014 0 8 SW 0 96.6 433
17:34:47 5 1015 0 7 SW 0 96.6 431
17:37:45 5 1014 0 4 0 96.6 439
17:40:45 5 1014 0 5 SW 0 96.6 436
17:43:46 5 1015 0 5 W 0 96.6 425
17:46:45 5 1015 0 11 SW 0 96.6 416
17:49:48 5 1015 0 8 W 0 96.6 421
17:52:48 5 1015 0 3 NW 0 96.6 431
17:55:46 5 1015 0 6 S 0 96.6 430
17:58:47 5 1015 0 8 W 0 96.6 419
18:01:45 5 1014 0 9 W 0 96.6 421
18:04:47 5 1016 0 4 SW 0 96.6 424
18:07:46 5 1016 0 7 W 0 96.6 442
18:10:47 5 1014 0 5 SW 0 96.6 440
18:13:46 5 1015 0 6 O 0 96.6 439
18:16:45 5 1016 0 5 S 0 96.6 436
18:19:47 5 1014 0 13 NW 0 96.6 445
18:22:44 5 1015 0 2 N 0 96.6 447
18:25:48 5 1015 0 1 SW 0 96.6 448
18:28:45 5 1015 0 5 W 0 96.6 445
18:31:48 5 1015 0 3 W 0 96.6 452
18:34:46 5 1015 0 5 SW 0 96.6 448
18:37:48 5 1015 0 7 W 0 96.6 439
18:40:48 5 1016 0 4 SW 0 96.6 433
18:43:47 5 1015 0 2 NW 0 96.6 431
18:46:45 5 1016 0 4 SW 0 96.6 428
18:49:44 5 1016 0 4 W 0 96.6 401
18:52:46 5 1016 0 3 SW 0 96.6 404
18:55:48 5 1016 0 4 SW 0 96.6 407
18:58:47 5 1015 0 6 SW 0 96.6 404
19:01:46 5 1016 0 4 W 0 96.6 407
19:04:47 5 1015 0 6 SW 0 96.6 407
19:07:50 5 1016 0 2 SW 0 96.6 404
19:10:48 5 1016 0 3 S 0 96.6 407
19:13:47 5 1016 0 8 W 0 96.6 406
19:16:46 5 1016 0 1 NO 0 96.6 407
19:19:47 5 1016 0 4 NW 0 96.6 407
19:22:47 5 1016 0 3 NW 0 96.6 407
19:25:47 5 1016 0 3 W 0 96.6 404
19:28:45 5 1017 0 2 W 0 96.6 407
19:31:45 5 1016 0 3 W 0 96.6 407
19:34:47 5 1016 0 5 SW 0 96.6 404
19:37:48 5 1016 0 2 NW 0 96.6 407
19:40:49 5 1016 0 3 NW 0 96.6 407
19:43:47 5 1016 0 4 W 0 96.6 404
19:46:46 5 1016 0 2 W 0 96.6 404
19:49:48 5 1015 0 4 SW 0 96.6 407
19:52:48 5 1017 0 2 NW 0 96.6 404
19:55:47 5 1016 0 2 NW 0 96.6 403
19:58:47 5 1016 0 4 SW 0 96.6 407
20:01:46 5 1015 0 3 W 0 96.6 407
20:04:47 5 1016 0 2 SW 0 96.6 406
20:07:49 5 1016 0 6 W 0 96.6 404
20:10:49 5 1015 0 1 S 0 96.6 407
20:13:46 5 1016 0 3 W 0 96.6 407
20:16:48 5 1016 0 1 SW 0 96.6 407
20:19:47 5 1015 0 2 NW 0 96.6 408
20:22:47 5 1016 0 3 W 0 96.6 405
20:25:46 5 1016 0 4 W 0 96.6 407
20:28:49 5 1016 0 2 SW 0 96.6 401
20:31:47 5 1016 0 3 S 0 96.6 407
20:34:47 5 1016 0 4 W 0 96.6 407
20:37:48 5 1016 0 2 SW 0 96.6 454
20:40:46 5 1014 0 1 W 0 96.6 448
20:43:46 5 1015 0 2 W 0 96.6 447
20:46:47 5 1016 0 4 NW 0 96.6 443
20:49:47 5 1015 0 2 S 0 96.6 448
20:52:47 5 1015 0 2 NW 0 96.6 448
20:55:48 5 1016 0 1 W 0 96.6 451
20:58:47 5 1016 0 5 SW 0 96.6 463
21:01:49 5 1016 0 2 SO 0 96.6 466
21:04:47 5 1016 0 4 W 0 96.6 463
21:07:47 5 1016 0 1 NO 0 96.6 457
21:10:46 5 1015 0 6 W 0 96.6 451
21:13:45 5 1016 0 2 W 0 96.6 454
21:16:47 5 1016 0 3 NW 0 96.6 462
21:19:46 5 1016 0 1 N 0 96.6 466
21:22:45 5 1016 0 4 W 0 96.6 460
21:25:49 5 1016 0 3 NW 0 96.6 463
21:28:46 5 1017 0 3 W 0 96.6 466
21:31:49 5 1016 0 1 SW 0 96.6 478
21:34:46 5 1015 0 6 W 0 96.6 483
21:37:46 5 1015 0 9 W 0 96.6 480
21:40:46 5 1016 0 5 W 0 96.6 478
21:43:48 5 1016 0 2 W 0 96.6 478
21:46:45 5 1016 0 4 W 0 96.6 480
21:49:48 5 1016 0 3 W 0 96.6 483
21:52:49 5 1016 0 2 NW 0 96.6 483
21:55:47 5 1016 0 1 W 0 96.6 486
21:58:49 5 1016 0 2 W 0 96.6 481
22:01:47 5 1016 0 0 NW 0 96.6 488
22:04:49 5 1016 0 0 SW 0 96.6 492
22:07:48 5 1016 0 2 NW 0 96.6 493
22:10:49 5 1016 0 0 NW 0 96.6 492
22:13:45 5 1016 0 2 W 0 96.6 491
22:16:47 4 1016 0 3 NW 0 96.6 495
22:19:47 4 1016 0 0 NW 0 96.6 495
22:22:47 4 1017 0 0 NW 0 96.6 498
22:25:47 4 1016 0 2 W 0 96.6 496
22:28:49 4 1016 0 0 W 0 96.6 495
22:31:47 4 1015 0 0 W 0 96.6 495
22:34:48 4 1016 0 0 W 0 96.6 501
22:37:47 4 1016 0 1 SW 0 96.6 504
22:40:45 4 1015 0 0 W 0 96.6 504
22:43:47 3 1016 0 2 W 0 96.6 505
22:46:52 3 1016 0 0 NO 0 96.6 507
22:49:47 4 1016 0 0 NW 0 96.6 507
22:52:49 3 1015 0 2 NW 0 96.6 500
22:55:46 3 1016 0 0 NW 0 96.6 515
22:58:46 3 1016 0 0 NW 0 96.6 517
23:01:45 3 1016 0 1 W 0 96.6 515
23:04:45 3 1015 0 0 W 0 96.6 512
23:07:48 3 1016 0 0 W 0 96.6 515
23:10:47 3 1015 0 0 W 0 96.6 512
23:13:45 3 1016 0 0 W 0 96.6 512
23:16:46 3 1016 0 0 W 0 96.6 516
23:19:46 2 1015 0 0 W 0 96.6 512
23:22:46 2 1016 0 0 S 0 96.6 509
23:25:47 2 1015 0 0 NW 0 96.6 506
23:28:48 2 1016 0 0 NW 0 96.6 509
23:31:46 2 1015 0 0 NW 0 96.6 507
23:34:47 2 1015 0 0 NW 0 96.6 512
23:37:46 2 1016 0 1 W 0 96.6 512
23:40:49 2 1016 0 0 W 0 96.6 512
23:43:47 2 1015 0 1 S 0 96.6 508
23:46:46 2 1015 0 0 S 0 96.6 501
23:49:48 2 1015 0 0 S 0 96.6 501
23:52:47 2 1016 0 0 S 0 96.6 492
23:55:47 2 1016 0 2 W 0 96.6 505
23:58:48 2 1016 0 0 W 0 96.6 508

Letzte Änderung : 04-Jan-2022
Copyright Jens Köhler, Wolfsburg, Obere Dorfstraße 10d